Poplar Bluff, MO

11:54 AM CDT on September 17, 2019 (GMT -0500)
Poplar Bluff Municipal

Weather History for KPOF - May, 2019

Change the Weather History Date:

Thursday, May 2, 2019

  Actual Average Record
Temperature  
Mean Temperature 66 °F -  
Max Temperature 68 °F 73 °F 91 °F (1943)
Min Temperature 63 °F 51 °F 35 °F (1918)
Growing Degree Days 16 (Base 50)    
Moisture  
Dew Point 65 °F    
Average Humidity 98    
Maximum Humidity 100    
Minimum Humidity 88    
Precipitation  
Precipitation 2.92 in - - ()
Sea Level Pressure  
Sea Level Pressure 30.04 in    
Wind  
Wind Speed 5 mph (NE)    
Max Wind Speed 13 mph    
Max Gust Speed 22 mph    
Visibility 6 miles    
Events Fog , Rain    
Averages and records for this station are not official NWS values.
T = Trace of Precipitation, MM = Missing Value Source: NWS Daily Summary

Daily Weather History Graph

Daily Weather History Graph

Search for Another Location

Airport or City:

Astronomy

May. 02, 2019 Rise Set
Actual Time 6:06 AM CDT 7:50 PM CDT
Civil Twilight 5:38 AM CDT 8:18 PM CDT
Nautical Twilight 5:05 AM CDT 8:52 PM CDT
Astronomical Twilight 4:29 AM CDT 9:28 PM CDT
Moon 5:13 AM CDT (5/2) 5:43 PM CDT (5/2)
Length of Visible Light 14h 39m
Length of Day
13h 44m
Waning Crescent, 5% of the Moon is Illuminated
May 2
Waning Crescent
May 4
New
May 11
First Quarter
May 18
Full
May 26
Last Quarter

Hourly Weather History & Observations

Time (CDT) Temp. Dew Point Humidity Pressure Visibility Wind Dir Wind Speed Gust Speed Precip Events Conditions
12:53 AM 63.0 °F 63.0 °F 100% 30.04 in 10.0 mi SE 3.5 mph - N/A   Partly Cloudy
1:53 AM 63.0 °F 63.0 °F 100% 30.03 in 10.0 mi Calm Calm - N/A   Mostly Cloudy
3:53 AM 64.0 °F 64.0 °F 100% 30.01 in 8.0 mi West 12.7 mph 17.3 mph 0.07 in Rain Light Rain
4:02 AM 64.0 °F 64.0 °F 100% 30.00 in 1.8 mi NW 10.4 mph 21.9 mph 0.07 in Rain Heavy Rain
4:11 AM 64.0 °F 64.0 °F 100% 30.01 in 3.0 mi ENE 8.1 mph - 0.18 in Rain Light Rain
4:38 AM 63.0 °F 63.0 °F 100% 30.01 in 8.0 mi NNW 10.4 mph - 0.20 in Rain Light Rain
4:53 AM 64.0 °F 64.0 °F 100% 30.04 in 6.0 mi NNW 9.2 mph 21.9 mph 0.23 in Rain Light Rain
4:57 AM 64.0 °F 64.0 °F 100% 30.05 in 1.2 mi NNW 5.8 mph - 0.01 in Rain Heavy Rain
5:03 AM 64.0 °F 64.0 °F 100% 30.03 in 0.5 mi NE 8.1 mph - 0.25 in Fog , Rain Heavy Rain
5:10 AM 64.9 °F 64.0 °F 97% 30.02 in 1.0 mi North 10.4 mph 18.4 mph 0.64 in Rain Heavy Rain
5:20 AM 64.9 °F 64.9 °F 100% 30.03 in 2.0 mi NNW 3.5 mph - 0.74 in Rain Rain
5:34 AM 64.9 °F 64.0 °F 97% 30.04 in 1.8 mi Calm Calm - 0.83 in Rain Rain
5:42 AM 64.9 °F 64.0 °F 97% 30.05 in 2.0 mi Calm Calm - 0.87 in Rain Heavy Rain
5:53 AM 64.0 °F 64.0 °F 100% 30.04 in 2.0 mi Variable 3.5 mph - 0.97 in Rain Rain
6:02 AM 64.0 °F 64.0 °F 100% 30.04 in 3.0 mi Calm Calm - 0.04 in Rain Rain
6:11 AM 64.0 °F 64.0 °F 100% 30.05 in 1.8 mi Calm Calm - 0.08 in Rain Heavy Rain
6:22 AM 64.0 °F 64.0 °F 100% 30.02 in 3.0 mi North 4.6 mph - 0.19 in Rain Light Rain
6:53 AM 64.0 °F 64.0 °F 100% 30.02 in 10.0 mi NE 4.6 mph - 0.20 in   Overcast
7:11 AM 64.0 °F 64.0 °F 100% 30.08 in 1.5 mi South 6.9 mph - 0.02 in Rain Heavy Rain
7:14 AM 64.0 °F 64.0 °F 100% 30.06 in 0.5 mi Variable 4.6 mph - 0.03 in Fog , Rain Heavy Rain
7:21 AM 64.0 °F 64.0 °F 100% 30.05 in 0.5 mi NE 5.8 mph - 0.34 in Fog , Rain Heavy Rain
7:31 AM 64.0 °F 64.0 °F 100% 30.04 in 2.0 mi NNE 6.9 mph - 0.40 in Rain Light Rain
7:40 AM 64.0 °F 64.0 °F 100% 30.04 in 9.0 mi NNE 5.8 mph - 0.41 in Rain Light Rain
7:53 AM 64.0 °F 64.0 °F 100% 30.05 in 10.0 mi Calm Calm - 0.41 in   Overcast
8:23 AM 64.0 °F 64.0 °F 100% 30.07 in 4.0 mi ESE 9.2 mph - 0.01 in Rain Light Rain
8:32 AM 64.0 °F 64.0 °F 100% 30.06 in 2.5 mi East 9.2 mph - 0.03 in Rain Rain
8:37 AM 64.9 °F 64.9 °F 100% 30.06 in 3.0 mi East 9.2 mph - 0.03 in Rain Light Rain
8:44 AM 64.9 °F 64.9 °F 100% 30.09 in 2.0 mi Variable 6.9 mph - 0.12 in Rain Rain
8:53 AM 64.9 °F 64.9 °F 100% 30.07 in 7.0 mi NE 5.8 mph - 0.12 in Rain Light Rain
9:53 AM 64.9 °F 64.0 °F 97% 30.09 in 3.0 mi SE 9.2 mph - 0.05 in Rain Light Rain
10:53 AM 64.9 °F 64.9 °F 100% 30.08 in 6.0 mi Calm Calm - 0.05 in Rain Light Rain
11:00 AM 64.9 °F 64.0 °F 97% 30.10 in 6.0 mi ESE 4.6 mph - 0.01 in Rain Light Rain
11:07 AM 64.0 °F 64.0 °F 100% 30.12 in 2.5 mi North - - 0.01 in Rain Light Rain
11:12 AM 64.0 °F 64.0 °F 100% 30.12 in 0.8 mi South 4.6 mph - 0.05 in Rain Heavy Rain
11:34 AM 64.0 °F 64.0 °F 100% 30.12 in 1.0 mi WNW 5.8 mph - 0.25 in Rain Rain
11:41 AM 64.9 °F 64.0 °F 97% 30.11 in 0.5 mi North 3.5 mph - 0.38 in Fog , Rain Rain
11:47 AM 64.4 °F 64.4 °F 100% 30.10 in 2.0 mi NE 6.9 mph - 0.40 in Rain Light Rain
11:53 AM 64.9 °F 64.9 °F 100% 30.10 in 5.0 mi Calm Calm - 0.40 in Rain Light Rain
12:53 PM 66.9 °F 66.0 °F 97% 30.08 in 10.0 mi East 5.8 mph - 0.00 in   Overcast
1:24 PM 66.9 °F 64.9 °F 93% 30.07 in 8.0 mi East 6.9 mph - 0.01 in Rain Light Rain
1:51 PM 68.0 °F 64.4 °F 88% 30.07 in 10.0 mi Calm Calm - 0.01 in   Mostly Cloudy
1:53 PM 68.0 °F 64.9 °F 90% 30.06 in 10.0 mi Calm Calm - 0.01 in   Mostly Cloudy
2:04 PM 68.0 °F 64.9 °F 90% 30.06 in 10.0 mi East 3.5 mph - N/A   Mostly Cloudy
2:15 PM 68.0 °F 64.9 °F 90% 30.06 in 10.0 mi NE 3.5 mph - N/A   Overcast
2:30 PM 68.0 °F 64.9 °F 90% 30.04 in 10.0 mi NE 5.8 mph - N/A   Overcast
2:38 PM 68.0 °F 64.9 °F 90% 30.04 in 10.0 mi ENE 5.8 mph - N/A   Overcast
2:53 PM 66.9 °F 64.9 °F 93% 30.03 in 10.0 mi Variable 4.6 mph - N/A   Overcast
2:56 PM 68.0 °F 64.9 °F 90% 30.04 in 10.0 mi ENE 4.6 mph - N/A   Overcast
3:51 PM 68.0 °F 66.2 °F 94% 30.01 in 10.0 mi NNE 5.8 mph - 0.00 in Rain Light Rain
3:53 PM 68.0 °F 66.0 °F 93% 30.00 in 10.0 mi NNE 5.8 mph - 0.00 in Rain Light Rain
4:17 PM 66.9 °F 66.0 °F 97% 30.01 in 10.0 mi NE 6.9 mph - 0.00 in Rain Light Rain
4:53 PM 66.9 °F 66.0 °F 97% 29.99 in 2.5 mi NE 5.8 mph - 0.05 in Rain Rain
5:06 PM 66.9 °F 66.0 °F 97% 29.99 in 4.0 mi NNE 5.8 mph - 0.03 in Rain Light Rain
5:45 PM 66.9 °F 66.0 °F 97% 29.98 in 6.0 mi NE 4.6 mph - 0.09 in Rain Light Rain
5:53 PM 66.9 °F 66.0 °F 97% 29.97 in 5.0 mi NE 5.8 mph - 0.09 in Rain Light Rain
6:53 PM 66.0 °F 66.0 °F 100% 29.96 in 3.0 mi NE 4.6 mph - 0.11 in Rain Rain
7:53 PM 64.9 °F 64.9 °F 100% 29.97 in 6.0 mi East 3.5 mph - 0.09 in Rain Light Rain
8:18 PM 66.0 °F 66.0 °F 100% 29.98 in 7.0 mi ESE 3.5 mph - 0.01 in Rain Light Rain
8:29 PM 66.0 °F 66.0 °F 100% 29.99 in 6.0 mi NE 4.6 mph - 0.02 in Rain Light Rain
8:53 PM 64.9 °F 64.9 °F 100% 29.99 in 6.0 mi ENE 4.6 mph - 0.04 in Rain Light Rain
9:53 PM 64.9 °F 64.9 °F 100% 29.97 in 8.0 mi NNE 4.6 mph - 0.03 in   Mostly Cloudy
10:06 PM 64.9 °F 64.9 °F 100% 29.97 in 8.0 mi NNE 5.8 mph - N/A   Mostly Cloudy
10:43 PM 64.9 °F 64.9 °F 100% 29.97 in 9.0 mi NE 4.6 mph - N/A   Mostly Cloudy
10:53 PM 64.9 °F 64.9 °F 100% 29.96 in 9.0 mi NNE 5.8 mph - N/A   Mostly Cloudy
11:26 PM 64.9 °F 64.9 °F 100% 29.97 in 9.0 mi NNE 4.6 mph - N/A   Overcast
11:53 PM 64.9 °F 64.0 °F 97% 29.97 in 10.0 mi North 4.6 mph - N/A   Overcast